Regional Weather Roundup
Issued by NWS

Home | Current Version | Previous Version | Text Only | Print | Product List | Glossary On
Versions: 1 2 3 4 5 6 7 8 9 10 11 12 13 14 15 16 17 18 19 20 21 22 23 24 25 26 27
000
ASPQ40 PGUM 230912
RWRPQ
WEATHER ROUNDUP FOR THE MARIANAS AND MICRONESIA
NATIONAL WEATHER SERVICE TIYAN GU
700 PM GSST WED APR 23 2014

GUZ001>004-231000-
MARIANA ISLANDS-

CITY           SKY/WX    TMP DP  RH WIND       PRES   REMARKS
GUAM AIRPORT   PTCLDY    82  72  69 NE10      29.87R
ANDERSEN AFB   PTCLDY    81  72  74 E16       29.87R
ROTA AIRPORT   PTCLDY    79  72  78 E12       29.88R
TINIAN AP      PTCLDY    81  70  69 E12       29.86R
SAIPAN AP      PTCLDY    81  72  74 E10       29.87R

$$

PMZ161-231000-
REPUBLIC OF PALAU-

CITY           SKY/WX    TMP DP  RH WIND       PRES   REMARKS
KOROR AP       MOCLDY    82  77  83 E6        29.78R HX  91
KOROR WSO      MOCLDY    82  77  83 S5        29.79R HX  91

$$

PMZ171>174-231000-
FEDERATED STATES OF MICRONESIA-

CITY           SKY/WX    TMP DP  RH WIND       PRES   REMARKS
YAP AIRPORT    MOCLDY    82  73  74 VRB5      29.81R
CHUUK AP       LGT RAIN  81  77  89 N13       29.78R
POHNPEI AP     NOT AVBL
POHNPEI WSO    CLOUDY    77  77 100 NW3       29.83R
KOSRAE AP      NOT AVBL

$$

PMZ181-231000-
REPUBLIC OF THE MARSHALL ISLANDS-

CITY           SKY/WX    TMP DP  RH WIND       PRES   REMARKS
KWAJALEIN AP   RAIN      81  73  78 NE9       29.84R
MAJURO AP      NOT AVBL
MAJURO WSO     MOCLDY    81  77  89 E9        29.80R

$$




USA.gov is the U.S. government's official web portal to all federal, state and local government web resources and services.